Regional Weather Roundup
Issued by NWS

Home | Current Version | Previous Version | Graphics & Text | Print | Product List | Glossary On
Versions: 1 2 3 4 5 6 7 8 9 10 11 12 13 14 15 16 17 18 19 20 21 22 23 24 25 26 27 28 29 30 31 32 33 34 35 36 37 38 39 40 41 42 43 44 45 46 47 48 49 50
000
ASUS43 KDTX 192101
RWRMI
MICHIGAN HOURLY REGIONAL WEATHER ROUNDUP
NATIONAL WEATHER SERVICE DETROIT/PONTIAC MI
400 PM EST THU JAN 19 2017

NOTE: "FAIR" INDICATES FEW OR NO CLOUDS BELOW 12,000 FEET WITH NO
SIGNIFICANT WEATHER AND/OR OBSTRUCTION TO VISIBILITY.

MIZ047>049-052>055-059>063-066>070-074>076-081>083-192200-
SOUTHEAST LOWER MICHIGAN

CITY           SKY/WX    TMP DP  RH WIND       PRES   REMARKS
ADRIAN         CLOUDY    36  34  92 S7        29.97F WCI  30
ALMA           CLOUDY    37  34  90 SW6       29.95R FOG     WCI  32
ANN ARBOR      CLOUDY    36  33  89 SE7       29.97S FOG     WCI  30
BAD AXE        CLOUDY    33  32  96 S7        29.95F FOG     WCI  27
CARO           CLOUDY    36  32  86 S5        29.96R WCI  32
DETROIT CITY   CLOUDY    36  32  87 S9        29.99S WCI  29
DETROIT        CLOUDY    37  32  82 S7        29.98S HAZE    WCI  32
FLINT          SUNNY     41  33  73 S6        29.96R
GROSSE ILE     CLOUDY    34  32  92 S7        29.98F FOG     WCI  28
HILLSDALE      CLOUDY    34  32  93 S6        29.94F FOG     WCI  29
HOWELL         CLOUDY    41  33  72 S7        29.95S

CITY           SKY/WX    TMP DP  RH WIND       PRES   REMARKS
JACKSON        CLOUDY    41  33  73 S9        29.94F
LAMBERTVILLE   PTSUNNY   40  35  80 S6        29.97F HAZE
LANSING        CLOUDY    41  32  70 S6        29.94F
LAPEER         FAIR      40  33  78 S7        29.96R WCI  35
MASON          CLOUDY    41  36  80 SE5       29.94F
MONROE         CLOUDY    37  35  89 S3        29.97F FOG
PONTIAC        PTSUNNY   40  32  73 S6        29.95R
PORT HOPE        N/A     34  32  92 VRB3      29.94S
PORT HURON     CLOUDY    32  32 100 S10       29.99S FOG     WCI  24
TRI CITIES     CLOUDY    38  35  89 SW5       29.95S FOG     WCI  34
MIDLAND        FAIR      38  33  80 S7        29.94R HAZE    WCI  33
TROY           SUNNY     40  32  71 S6        29.99R
SAGINAW HB     MOSUNNY   37  32  81 S7        29.96R WCI  32
$$
MIZ043>046-050>051-056>058-064>065-071>073-077>080-192200-
SOUTHWEST LOWER MICHIGAN

CITY           SKY/WX    TMP DP  RH WIND       PRES   REMARKS
BATTLE CREEK   CLOUDY    42  35  76 S7        29.94S
BENTON HARBOR  CLOUDY    41  35  79 SE8       29.94S HAZE
BIG RAPIDS     CLOUDY    40  33  74 S5        29.91S
COLDWATER      CLOUDY    38  35  88 S7        29.95F WCI  33
FREMONT        FAIR      38  34  87 SW6       29.92F FOG     WCI  33
HOLLAND        CLOUDY    39  35  86 SE6       29.93F WCI  35
GRAND RAPIDS   PTSUNNY   40  34  79 S3        29.93F
IONIA          FAIR      38  33  81 S3        29.92F
KALAMAZOO      MOSUNNY   40  34  79 S6        29.95S HAZE
LUDINGTON      CLOUDY    38  36  92 SW12      29.92R FOG     WCI  30
MARSHALL       CLOUDY    42  35  76 S3        29.93F
MOUNT PLEASANT CLOUDY    40  35  80 SE5       29.93R
MUSKEGON       CLOUDY    38  34  85 SE3       29.93F FOG
SOUTH HAVEN    CLOUDY    41  37  86 SE5       29.94R FOG
$$
MIZ016>042-192200-
NORTHERN LOWER MICHIGAN

CITY           SKY/WX    TMP DP  RH WIND       PRES   REMARKS
ALPENA         CLOUDY    36  32  85 S3        29.93S
BEAVER ISLAND  CLOUDY    36  36 100 S6        29.90R FOG     WCI  31
BELLAIRE       CLOUDY    37  33  86 CALM      29.90F
CADILLAC       CLOUDY    34  33  96 S7        29.90R FOG     WCI  28
CHARLEVOIX     CLOUDY    35  35  99 S5        29.93S FOG     WCI  31
FRANKFORT      CLOUDY    37  34  90 S6        29.91R FOG     WCI  32
GAYLORD        CLOUDY    36  31  82 S7        29.86F HAZE    WCI  30
GRAYLING       CLOUDY    35  33  92 CALM      29.90S FOG
HARBOR SPRINGS CLOUDY    35  33  96 CALM      29.90F FOG
HOUGHTON LAKE  CLOUDY    34  32  92 SW6       29.91R FOG     WCI  29
MANISTEE       CLOUDY    38  34  85 VRB7      29.92R WCI  33
OSCODA         CLOUDY    36  34  91 S5        29.92F FOG     WCI  32
PELLSTON       CLOUDY    35  32  88 CALM      29.90F FOG
ROGERS CITY    CLOUDY    36  32  86 E3        29.93S FOG
TRAVERSE CITY  CLOUDY    37  33  85 SW5       29.89S WCI  33
$$
MIZ007>008-015-192200-
EASTERN UPPER MICHIGAN

CITY           SKY/WX    TMP DP  RH WIND       PRES   REMARKS
KINROSS        CLOUDY    34  33  96 SE8       29.89F FOG     WCI  27
MACKINAC ISLAN CLOUDY    34  34 100 CALM      29.90R FOG
NEWBERRY       FOG       33  32  96 S10       29.86S VSB<1/4 WCI  25
S. S. MARIE    CLOUDY    36  32  85 SE5       29.88F FOG     WCI  32
MUNISING         N/A     33  32  96 S8        29.83S WCI  26
$$
MIZ004>006-011>014-085-192200-
CENTRAL UPPER MICHIGAN

CITY           SKY/WX    TMP DP  RH WIND       PRES   REMARKS
MANISTIQUE     FOG       32  31  97 SW7       29.86S VSB 1/4 WCI  26
ESCANABA       FOG       33  32  96 S10       29.88R VSB 1/2 WCI  25
SAWYER-GWINN   CLOUDY    32  32 100 SW9       29.81S FOG     WCI  24
$$
MIZ001>003-009>011-084-192200-
WESTERN UPPER MICHIGAN

CITY           SKY/WX    TMP DP  RH WIND       PRES   REMARKS
IRON MOUNTAIN  SUNNY     39  31  72 SE8       29.81R WCI  33
HOUGHTON       MOSUNNY   38  33  82 SE5       29.75F WCI  34
COPPER HARBOR    N/A     38  31  76 CALM      29.77S
IRONWOOD       SUNNY     51  37  58 S7        29.74F
$$

ABBREVIATIONS USED IN REMARKS
   TC - TEMPERATURE IN CELSIUS
  WCI - WIND CHILL INDEX
   HX - HEAT INDEX
  VSB - VISIBILITY




USA.gov is the U.S. government's official web portal to all federal, state and local government web resources and services.